Вернуться в каталог

STARLINK-33908

АктивенСвязьVLEO
NORAD 63700·PAYLOAD·🇺🇸 United States

Запущен Apr 28, 2025 с Vandenberg Space Force Base

Loading…

Ближайшие Пролёты (ближайшие 24 часа)

TLE

СвежийSource: CelesTrak SupGP

Эпоха: Sep 15, 2026, 01:50 UTC

1 63700C 25087D   26258.07687500 -.00022190  00000+0 -65583-3 0  2587
2 63700  53.1597  59.2636 0001061  90.4201 292.2161 15.34391281    14

Отслеживайте STARLINK-33908 в реальном времени с AllMySat

Download on the App Store